Weather Service Report


959 
ASUS45 KABQ 290810
RWRNM 
NEW MEXICO REGIONAL WEATHER ROUNDUP
NATIONAL WEATHER SERVICE ALBUQUERQUE NM
200 AM MDT FRI MAY 29 2015

NOTE: "FAIR" MEANS FEW OR NO CLOUDS BELOW 12,000 FEET AGL WITH NO
       SIGNIFICANT WEATHER OR OBSTRUCTIONS TO VISION.

      THIS PRODUCT IS RELEASED AS TWO VERSIONS.  ONE VERSION NEAR
      THE TOP OF THE HOUR CONTAINING PRELIMINARY DATA FROM ALBUQUERQUE
      AND OTHER STATIONS.  A FINAL VERSION WITH ADDITIONAL DATA IS 
      ISSUED ABOUT 10 MINUTES AFTER THE HOUR.
 
NMZ501-503-504-510>518-290900-
NORTHWEST PLATEAU/NORTHCENTRAL MOUNTAINS
  
CITY           SKY/WX    TMP DP  RH WIND       PRES   REMARKS
FARMINGTON     CLEAR     55  37  50 CALM      30.12S                  
LOS ALAMOS     CLEAR     54  35  48 N13       30.22S                  
SANTA FE       CLEAR     57  33  40 N18G28    30.13S                  
TAOS           CLEAR     48  28  46 NE5       30.21R                  
ANGEL FIRE     FAIR      37  32  81 SW5       30.28S WCI  33          

$$
NMZ402-403-502-505>509-290900-
WESTCENTRAL MOUNTAINS/SOUTHWEST MOUNTAINS
  
CITY           SKY/WX    TMP DP  RH WIND       PRES   REMARKS
GALLUP         CLOUDY    57  35  43 E13       30.19R                  
GRANTS         CLEAR     47  26  44 NW5       30.20S                  
SILVER CITY      N/A     57  18  21 NW12      30.12S                  

$$
NMZ407-409-411-412-290900-
SOUTHERN DESERTS
  
CITY           SKY/WX    TMP DP  RH WIND       PRES   REMARKS
LORDSBURG      FAIR      63  21  20 W9        30.04S                  
DEMING         CLEAR     63  19  18 CALM      30.02R                  
LAS CRUCES     CLEAR     64  18  17 NW9       30.02F                  
HOLLOMAN AFB   CLEAR     61  23  23 N7        29.96R                  
ALAMOGORDO     CLEAR     63  18  17 N3        29.98R                  
T OR C         CLEAR     70  16  12 NW10      30.03F                  

$$
NMZ519>523-290900-
CENTRAL VALLEYS/CENTRAL HIGHLANDS
  
CITY           SKY/WX    TMP DP  RH WIND       PRES   REMARKS
ALBUQUERQUE    CLEAR     67  32  27 NW8       30.09S                  
DOUBLE EAGLE   CLEAR     56  35  45 NW12      30.12S                  
MORIARTY ARPT  FAIR      46  33  62 NE3       30.16R                  
CLINES CORNERS CLEAR     54  37  52 NE7       30.17R                  
BELEN          FAIR      58  32  36 N3        30.08F                  
SOCORRO        FAIR      68  19  15 N7        30.05S                  

$$
NMZ524>526-539-540-290900-
SOUTHCENTRAL MOUNTAINS
  
CITY           SKY/WX    TMP DP  RH WIND       PRES   REMARKS
RUIDOSO        CLEAR     57  27  30 NW8       30.17S                  

$$
NMZ527>531-290900-
NORTHEAST HIGHLANDS/NORTHEAST PLAINS
  
CITY           SKY/WX    TMP DP  RH WIND       PRES   REMARKS
LAS VEGAS      MOCLDY    48  47  96 NE8       30.18R                  
RATON          CLEAR     52  47  83 NW6       30.15F                  
CLAYTON        MOCLDY    53  49  86 N8        30.09S                  

$$
NMZ532>537-290900-
EASTCENTRAL PLAINS
  
CITY           SKY/WX    TMP DP  RH WIND       PRES   REMARKS
TUCUMCARI      MOCLDY    58  51  78 W3        30.02S                  
CANNON AFB     MOCLDY    56  53  92 E3        30.04F                  
CLOVIS AIRPORT CLOUDY    55  48  76 NW3       30.02S                  

$$
NMZ028-029-538-290900-
SOUTHEAST PLAINS
  
CITY           SKY/WX    TMP DP  RH WIND       PRES   REMARKS
ROSWELL        PTCLDY    60  53  77 W10       29.98S                  
ARTESIA        CLEAR     57  54  88 W8        30.00R                  
CARLSBAD       CLEAR     58  54  86 S8        29.96F                  
HOBBS          CLOUDY    55  55 100 S8        29.98S                  


$$

Return to Home page


Western Regional Climate Center, wrcc@dri.edu